When you browse on this site, cookies collect data to enhance your experience and personalize the content and advertising you see.
Visit our Privacy Policy to learn more. By continuing to use the site, you agree to this use of cookies and data.
  • En España
  • Lista de países
  • Para 7 días
  • Temperatura del agua
  • Mapa Satelital
  • El tiempo en el mapa
  • Informadores
  • user-avatar
    Iniciar sesión

    Tiempo cada hora Bakhtaran

    Hoy, 21 Enero, Lunes

    Tiempo Temperatura Precipitaciones Viento Presión Humedad
    00:00 -2°C° 0 mm 0 mps 637 mmHg 56%
    01:00 -2°C° 0 mm 0 mps 637 mmHg 55%
    02:00 -2°C° 0 mm 0 mps 637 mmHg 55%
    03:00 -2°C° 0 mm 1 mps 636 mmHg 58%
    04:00 -2°C° 0 mm 1 mps 636 mmHg 58%
    05:00 -2°C° 0 mm 1 mps 636 mmHg 58%
    06:00 -2°C° 0 mm 1 mps 636 mmHg 58%
    07:00 -1°C° 0 mm 1 mps 637 mmHg 55%
    08:00 0°C° 0 mm 1 mps 637 mmHg 53%
    09:00 +1°C° 0 mm 1 mps 637 mmHg 50%
    10:00 +2°C° 0 mm 1 mps 637 mmHg 46%
    11:00 +2°C° 0 mm 0 mps 637 mmHg 42%
    12:00 +4°C° 0 mm 0 mps 637 mmHg 38%
    13:00 +4°C° 0 mm 0 mps 637 mmHg 39%
    14:00 +5°C° 0 mm 0 mps 636 mmHg 40%
    15:00 +5°C° 0 mm 0 mps 636 mmHg 41%
    16:00 +4°C° 0 mm 0 mps 636 mmHg 43%
    17:00 +3°C° 0 mm 0 mps 635 mmHg 45%
    18:00 +1°C° 0 mm 0 mps 635 mmHg 47%
    19:00 +1°C° 0 mm 0 mps 635 mmHg 48%
    20:00 +1°C° 0 mm 0 mps 635 mmHg 48%
    21:00 +1°C° 0 mm 0 mps 635 mmHg 48%
    22:00 0°C° 0 mm 0 mps 635 mmHg 48%
    23:00 0°C° 0 mm 0 mps 635 mmHg 47%

    Mañana, 22 Enero, Martes

    Tiempo Temperatura Precipitaciones Viento Presión Humedad
    00:00 0°C° 0 mm 0 mps 635 mmHg 47%
    01:00 0°C° 0 mm 0 mps 635 mmHg 47%
    02:00 0°C° 0 mm 0 mps 634 mmHg 47%
    03:00 0°C° 0 mm 0 mps 634 mmHg 48%
    04:00 0°C° 0 mm 0 mps 634 mmHg 48%
    05:00 -1°C° 0 mm 0 mps 634 mmHg 48%
    06:00 -1°C° 0 mm 0 mps 634 mmHg 48%
    07:00 0°C° 0 mm 0 mps 635 mmHg 46%
    08:00 +1°C° 0 mm 0 mps 635 mmHg 44%
    09:00 +2°C° 0 mm 0 mps 636 mmHg 41%
    10:00 +5°C° 0 mm 1 mps 636 mmHg 38%
    11:00 +6°C° 0 mm 1 mps 635 mmHg 35%
    12:00 +7°C° 0 mm 1 mps 635 mmHg 32%
    13:00 +7°C° 0 mm 1 mps 635 mmHg 31%
    14:00 +7°C° 0 mm 1 mps 635 mmHg 31%
    15:00 +8°C° 0 mm 1 mps 635 mmHg 31%
    16:00 +6°C° 0 mm 1 mps 635 mmHg 34%
    17:00 +5°C° 0 mm 1 mps 634 mmHg 38%
    18:00 +3°C° 0 mm 1 mps 634 mmHg 42%
    19:00 +3°C° 0 mm 1 mps 634 mmHg 43%
    20:00 +1°C° 0 mm 0 mps 634 mmHg 44%
    21:00 +1°C° 0 mm 0 mps 634 mmHg 45%
    22:00 +1°C° 0 mm 0 mps 634 mmHg 45%
    23:00 +1°C° 0 mm 0 mps 634 mmHg 46%

    Pasado mañana, 23 Enero, Miércoles

    Tiempo Temperatura Precipitaciones Viento Presión Humedad
    00:00 0°C° 0 mm 0 mps 635 mmHg 46%
    01:00 0°C° 0 mm 0 mps 635 mmHg 46%
    02:00 0°C° 0 mm 0 mps 634 mmHg 46%
    03:00 0°C° 0 mm 0 mps 634 mmHg 46%
    04:00 0°C° 0 mm 0 mps 634 mmHg 46%
    05:00 0°C° 0 mm 0 mps 634 mmHg 46%
    06:00 0°C° 0 mm 0 mps 634 mmHg 46%
    07:00 +1°C° 0 mm 0 mps 635 mmHg 43%
    08:00 +2°C° 0 mm 0 mps 636 mmHg 40%
    09:00 +3°C° 0 mm 0 mps 637 mmHg 37%
    10:00 +5°C° 0 mm 0 mps 637 mmHg 36%
    11:00 +7°C° 0 mm 1 mps 637 mmHg 36%
    12:00 +8°C° 0 mm 1 mps 637 mmHg 35%
    13:00 +8°C° 0 mm 1 mps 637 mmHg 36%
    14:00 +8°C° 0 mm 1 mps 637 mmHg 37%
    15:00 +9°C° 0 mm 1 mps 636 mmHg 38%
    16:00 +7°C° 0 mm 1 mps 636 mmHg 43%
    17:00 +5°C° 0 mm 0 mps 636 mmHg 49%
    18:00 +3°C° 0 mm 0 mps 636 mmHg 54%
    19:00 +3°C° 0 mm 0 mps 636 mmHg 55%
    20:00 +3°C° 0 mm 0 mps 636 mmHg 56%
    21:00 +2°C° 0 mm 0 mps 636 mmHg 57%
    22:00 +2°C° 0 mm 0 mps 636 mmHg 57%
    23:00 +2°C° 0 mm 0 mps 636 mmHg 58%

    24 Enero, Jueves

    Tiempo Temperatura Precipitaciones Viento Presión Humedad
    00:00 +2°C° 0 mm 0 mps 636 mmHg 58%
    01:00 +2°C° 0 mm 0 mps 636 mmHg 58%
    02:00 +2°C° 0 mm 0 mps 636 mmHg 58%
    03:00 +1°C° 0 mm 0 mps 636 mmHg 59%
    04:00 +1°C° 0 mm 0 mps 636 mmHg 59%
    05:00 +2°C° 0 mm 1 mps 636 mmHg 59%
    06:00 +2°C° 0 mm 1 mps 636 mmHg 59%
    07:00 +3°C° 0 mm 1 mps 637 mmHg 55%
    08:00 +5°C° 0 mm 1 mps 638 mmHg 50%
    09:00 +6°C° 0 mm 1 mps 639 mmHg 45%
    10:00 +7°C° 0 mm 1 mps 639 mmHg 42%
    11:00 +8°C° 0 mm 1 mps 639 mmHg 39%
    12:00 +9°C° 0 mm 1 mps 639 mmHg 36%
    13:00 +10°C° 0 mm 1 mps 639 mmHg 34%
    14:00 +10°C° 0 mm 1 mps 639 mmHg 33%
    15:00 +11°C° 0 mm 1 mps 638 mmHg 32%
    16:00 +9°C° 0 mm 1 mps 638 mmHg 36%
    17:00 +8°C° 0 mm 1 mps 638 mmHg 41%
    18:00 +6°C° 0 mm 1 mps 637 mmHg 45%
    19:00 +6°C° 0 mm 1 mps 637 mmHg 46%
    20:00 +6°C° 0 mm 1 mps 637 mmHg 47%
    21:00 +4°C° 0 mm 2 mps 637 mmHg 49%
    22:00 +5°C° 0 mm 1 mps 637 mmHg 50%
    23:00 +4°C° 0 mm 1 mps 637 mmHg 52%

    25 Enero, Viernes

    Tiempo Temperatura Precipitaciones Viento Presión Humedad
    00:00 +4°C° 0 mm 1 mps 637 mmHg 53%
    01:00 +4°C° 0 mm 1 mps 637 mmHg 54%
    02:00 +4°C° 0 mm 1 mps 637 mmHg 55%
    03:00 +3°C° 0 mm 1 mps 637 mmHg 56%
    04:00 +3°C° 0 mm 1 mps 637 mmHg 55%
    05:00 +3°C° 0 mm 2 mps 637 mmHg 55%
    06:00 +3°C° 0 mm 2 mps 637 mmHg 55%
    07:00 +4°C° 0 mm 2 mps 637 mmHg 51%
    08:00 +5°C° 0 mm 2 mps 638 mmHg 47%
    09:00 +6°C° 0 mm 2 mps 638 mmHg 43%
    10:00 +7°C° 0 mm 2 mps 638 mmHg 39%
    11:00 +9°C° 0 mm 2 mps 638 mmHg 35%
    12:00 +10°C° 0 mm 2 mps 638 mmHg 30%
    13:00 +11°C° 0 mm 3 mps 638 mmHg 30%
    14:00 +11°C° 0 mm 3 mps 638 mmHg 30%
    15:00 +12°C° 0 mm 3 mps 638 mmHg 30%
    16:00 +10°C° 0 mm 3 mps 637 mmHg 34%
    17:00 +9°C° 0 mm 2 mps 637 mmHg 38%
    18:00 +8°C° 0 mm 2 mps 637 mmHg 41%
    19:00 +7°C° 0 mm 2 mps 637 mmHg 43%
    20:00 +7°C° 0 mm 2 mps 637 mmHg 45%
    21:00 +6°C° 0 mm 2 mps 637 mmHg 47%
    22:00 +6°C° 0 mm 2 mps 636 mmHg 48%
    23:00 +5°C° 0 mm 2 mps 636 mmHg 50%

    26 Enero, Sábado

    Tiempo Temperatura Precipitaciones Viento Presión Humedad
    00:00 +5°C° 0 mm 2 mps 636 mmHg 51%
    01:00 +4°C° 0 mm 2 mps 636 mmHg 52%
    02:00 +4°C° 0 mm 2 mps 636 mmHg 52%
    03:00 +3°C° 0 mm 2 mps 636 mmHg 53%
    04:00 +3°C° 0 mm 2 mps 636 mmHg 53%
    05:00 +3°C° 0 mm 2 mps 636 mmHg 52%
    06:00 +3°C° 0 mm 2 mps 636 mmHg 52%
    07:00 +4°C° 0 mm 2 mps 636 mmHg 49%
    08:00 +5°C° 0 mm 2 mps 637 mmHg 45%
    09:00 +7°C° 0 mm 2 mps 638 mmHg 41%
    10:00 +8°C° 0 mm 2 mps 638 mmHg 39%
    11:00 +10°C° 0 mm 3 mps 638 mmHg 37%
    12:00 +11°C° 0 mm 3 mps 638 mmHg 34%
    13:00 +12°C° 0 mm 3 mps 638 mmHg 34%
    14:00 +13°C° 0 mm 3 mps 638 mmHg 34%
    15:00 +13°C° 0 mm 4 mps 638 mmHg 34%
    16:00 +12°C° 0 mm 3 mps 637 mmHg 38%
    17:00 +10°C° 0 mm 3 mps 637 mmHg 43%
    18:00 +9°C° 0 mm 2 mps 637 mmHg 47%
    19:00 +8°C° 0 mm 2 mps 637 mmHg 49%
    20:00 +8°C° 0 mm 3 mps 637 mmHg 51%
    21:00 +7°C° 0 mm 3 mps 637 mmHg 53%
    22:00 +7°C° 0 mm 3 mps 636 mmHg 55%
    23:00 +5°C° 0 mm 3 mps 636 mmHg 56%
    Mostrar más